DW9029 San Juan de Aznalfarache ES current weather conditions

sailwx.info

Wind from 226

Air temperature 15.0° C
Dewpoint 13.9° C

Last reported at 2019-Oct-18 06:03 UTC.
Time now 2019-Oct-18 06:24 UTC

Location: N 37°22' W 006°02'.
View on Google Maps.

See reports from other nearby stations

  
Tides and Currents Weather Stations Pressure Air Temp Water Temp Dewpoint Dewpoint Depression Visibility Wind Speed Wind Dir Waves Ship Positions
date/time (UTC)wind fromknots sea level pressurealtimeterstation pressurevisibilityair tempwater tempwave heightnotes
2019-Oct-18 06:08 226 15.0
2019-Oct-18 06:03 226 15.0
2019-Oct-18 05:48 226 15.0
2019-Oct-18 05:43 226 15.6
2019-Oct-18 05:39 226 15.0
2019-Oct-18 05:34 226 15.0
2019-Oct-18 05:19 226 15.0
2019-Oct-18 05:13 226 15.0
2019-Oct-18 05:08 226 15.0
2019-Oct-18 05:04 226 15.0
2019-Oct-18 04:48 226 15.6
2019-Oct-18 04:43 226 15.6
2019-Oct-18 04:39 226 15.6
2019-Oct-18 04:33 226 15.6
2019-Oct-18 04:19 226 15.6
2019-Oct-18 04:13 226 15.6
2019-Oct-18 04:08 226 15.6
2019-Oct-18 04:04 226 15.6
2019-Oct-18 03:49 226 15.6
2019-Oct-18 03:43 226 15.6
2019-Oct-18 03:39 226 15.6
2019-Oct-18 03:33 226 15.6
2019-Oct-18 03:19 226 15.6
2019-Oct-18 03:13 226 15.6
2019-Oct-18 03:08 226 15.6
2019-Oct-18 03:04 226 16.1
2019-Oct-18 02:48 226 16.1
2019-Oct-18 02:43 226 16.1
2019-Oct-18 02:39 226 16.1
2019-Oct-18 02:33 226 16.1
2019-Oct-18 02:18 226 16.1
2019-Oct-18 02:13 226 16.1
2019-Oct-18 02:08 226 16.1
2019-Oct-18 02:03 226 16.1
2019-Oct-18 01:48 226 16.1
2019-Oct-18 01:43 226 16.1
2019-Oct-18 01:39 226 16.1
2019-Oct-18 01:34 226 16.7
2019-Oct-18 01:18 223 16.7
2019-Oct-18 01:13 223 16.7
2019-Oct-18 01:08 223 16.7
2019-Oct-18 01:04 225 16.7
2019-Oct-18 00:48 189 16.7
2019-Oct-18 00:44 189 16.7
2019-Oct-18 00:38 191 16.7
2019-Oct-18 00:33 175 16.7
2019-Oct-18 00:19 175 16.7
2019-Oct-18 00:13 175 16.7
2019-Oct-18 00:09 175 16.7
2019-Oct-18 00:04 180 16.7
2019-Oct-17 23:48 175 16.7
2019-Oct-17 23:43 172 16.7
2019-Oct-17 23:39 172 16.7
2019-Oct-17 23:33 172 16.7
2019-Oct-17 23:18 166 17.2
2019-Oct-17 23:14 166 17.2
2019-Oct-17 23:08 166 17.2
2019-Oct-17 23:04 179 17.2
2019-Oct-17 22:48 179 17.2
2019-Oct-17 22:43 179 17.2
2019-Oct-17 22:38 179 17.2
2019-Oct-17 22:34 179 17.2
2019-Oct-17 22:18 186 17.8
2019-Oct-17 22:13 186 17.8
2019-Oct-17 22:09 186 17.8
2019-Oct-17 22:03 180 17.8
2019-Oct-17 21:48 185 17.8
2019-Oct-17 21:43 185 18.3
2019-Oct-17 21:39 185 18.3
2019-Oct-17 21:33 184 18.3
2019-Oct-17 21:18 192 18.3
2019-Oct-17 21:13 192 18.9
2019-Oct-17 21:09 192 18.9
2019-Oct-17 21:04 192 18.9
2019-Oct-17 20:48 220 19.4
2019-Oct-17 20:44 220 19.4
2019-Oct-17 20:39 220 19.4
2019-Oct-17 20:34 220 19.4
2019-Oct-17 20:19 167 19.4
2019-Oct-17 20:13 166 19.4
2019-Oct-17 20:08 142 20.0
2019-Oct-17 20:04 138 20.0
2019-Oct-17 19:49 269 20.6
2019-Oct-17 19:44 210 20.6
2019-Oct-17 19:38 241 0 gusting 6 20.6
2019-Oct-17 19:33 255 0 gusting 6 20.6
2019-Oct-17 19:19 254 1 gusting 8 21.1
2019-Oct-17 19:13 259 21.1
2019-Oct-17 19:09 262 0 gusting 4 21.1
2019-Oct-17 19:04 246 0 gusting 10 21.1
2019-Oct-17 18:48 252 2 gusting 10 21.7
2019-Oct-17 18:43 245 0 gusting 6 21.7
2019-Oct-17 18:39 248 0 gusting 6 21.7
2019-Oct-17 18:34 254 1 gusting 6 21.7
2019-Oct-17 18:19 258 22.2
2019-Oct-17 18:13 238 0 gusting 12 22.2
2019-Oct-17 18:09 249 1 gusting 7 22.2
2019-Oct-17 18:03 257 2 gusting 10 22.8
2019-Oct-17 17:48 240 1 gusting 10 22.8
2019-Oct-17 17:44 231 22.8
2019-Oct-17 17:39 246 1 gusting 6 23.3
2019-Oct-17 17:33 230 5 gusting 10 23.3
2019-Oct-17 17:18 185 23.3
2019-Oct-17 17:13 186 0 gusting 4 23.3
2019-Oct-17 17:08 183 1 gusting 5 23.3
2019-Oct-17 17:04 184 0 gusting 6 23.3
2019-Oct-17 16:49 217 23.9
2019-Oct-17 16:43 173 1 gusting 6 23.9
2019-Oct-17 16:39 167 1 gusting 6 24.4
2019-Oct-17 16:34 224 24.4
2019-Oct-17 16:19 151 0 gusting 6 24.4
2019-Oct-17 16:14 205 2 gusting 6 25.0
2019-Oct-17 16:09 211 0 gusting 8 25.0
2019-Oct-17 16:04 186 1 gusting 6 25.0
2019-Oct-17 15:48 203 1 gusting 5 24.4
2019-Oct-17 15:44 177 24.4
2019-Oct-17 15:38 182 2 gusting 6 24.4
2019-Oct-17 15:34 177 0 gusting 6 24.4
2019-Oct-17 15:19 182 0 gusting 6 24.4
2019-Oct-17 15:13 156 1 gusting 6 24.4
2019-Oct-17 15:08 168 1 gusting 6 24.4
2019-Oct-17 15:03 227 1 gusting 5 24.4
2019-Oct-17 14:49 177 2 gusting 5 24.4
2019-Oct-17 14:43 221 4 gusting 8 24.4
2019-Oct-17 14:38 113 24.4
2019-Oct-17 14:33 178 0 gusting 6 24.4
2019-Oct-17 14:19 205 3 gusting 6 24.4
2019-Oct-17 14:14 234 1 gusting 5 23.9
2019-Oct-17 14:09 181 0 gusting 6 23.9
2019-Oct-17 14:04 156 2 gusting 7 23.9
2019-Oct-17 13:49 157 0 gusting 5 23.9
2019-Oct-17 13:44 134 23.9
2019-Oct-17 13:39 064 23.3
2019-Oct-17 13:34 112 23.3
2019-Oct-17 13:19 187 23.3
2019-Oct-17 13:14 047 23.3
2019-Oct-17 13:09 205 22.8
2019-Oct-17 13:04 170 0 gusting 6 22.8
2019-Oct-17 12:49 193 22.8
2019-Oct-17 12:44 156 1 gusting 5 22.8
2019-Oct-17 12:39 191 22.8
2019-Oct-17 12:34 063 0 gusting 6 22.2
2019-Oct-17 12:19 241 0 gusting 4 22.2
2019-Oct-17 12:14 259 0 gusting 4 22.2
2019-Oct-17 12:09 259 1 gusting 6 22.2
2019-Oct-17 12:04 181 22.2
2019-Oct-17 11:49 067 21.7
2019-Oct-17 11:44 062 21.7
2019-Oct-17 11:39 018 21.7
2019-Oct-17 11:34 248 21.1
2019-Oct-17 11:19 217 1 gusting 4 20.6
2019-Oct-17 11:14 189 20.6
2019-Oct-17 11:09 146 20.6
2019-Oct-17 11:04 154 20.6
2019-Oct-17 10:49 128 20.0
2019-Oct-17 10:44 127 20.0
2019-Oct-17 10:39 157 19.4
2019-Oct-17 10:34 113 19.4
2019-Oct-17 10:19 049 19.4
2019-Oct-17 10:14 068 19.4
2019-Oct-17 10:09 069 18.9
2019-Oct-17 10:04 057 18.9
2019-Oct-17 09:49 039 18.3
2019-Oct-17 09:44 051 17.8
2019-Oct-17 09:39 083 18.3
2019-Oct-17 09:34 086 18.3
2019-Oct-17 09:19 074 17.8
2019-Oct-17 09:14 133 17.2
2019-Oct-17 09:09 017 17.2
2019-Oct-17 09:04 073 16.7
2019-Oct-17 08:49 072 16.1
2019-Oct-17 08:44 032 16.1
2019-Oct-17 08:39 031 15.6
2019-Oct-17 08:34 15.0
2019-Oct-17 08:19 018 14.4
2019-Oct-17 08:14 024 13.9
2019-Oct-17 08:09 024 13.9
2019-Oct-17 08:04 030 13.3
2019-Oct-17 07:49 019 13.3
2019-Oct-17 07:44 022 13.3
2019-Oct-17 07:39 351 13.3
2019-Oct-17 07:34 351 13.3
2019-Oct-17 07:19 331 12.8
2019-Oct-17 07:14 331 12.8
2019-Oct-17 07:09 331 12.2
2019-Oct-17 07:04 330 12.2
2019-Oct-17 06:49 005 12.2
2019-Oct-17 06:44 005 12.2
2019-Oct-17 06:39 005 12.8
2019-Oct-17 06:34 005 12.8
2019-Oct-17 06:19 005 12.2
2019-Oct-17 06:14 005 12.2
2019-Oct-17 06:09 005 12.2
2019-Oct-17 06:04 005 12.8
2019-Oct-17 05:49 006 12.2
2019-Oct-17 05:44 006 12.2
2019-Oct-17 05:39 005 12.2
2019-Oct-17 05:34 006 12.2
2019-Oct-17 05:19 017 12.8
2019-Oct-17 05:14 304 12.8
2019-Oct-17 05:09 303 12.8
2019-Oct-17 05:04 303 12.8
2019-Oct-17 04:49 303 12.8
2019-Oct-17 04:44 303 12.8
2019-Oct-17 04:39 303 12.8
2019-Oct-17 04:34 303 12.8
2019-Oct-17 04:19 303 12.8
2019-Oct-17 04:14 303 12.8
2019-Oct-17 04:09 303 12.8
2019-Oct-17 04:04 303 12.2
2019-Oct-17 03:49 303 12.8
2019-Oct-17 03:44 303 12.8
2019-Oct-17 03:39 303 12.8
2019-Oct-17 03:34 303 12.8
2019-Oct-17 03:19 303 12.8
2019-Oct-17 03:14 302 12.8
2019-Oct-17 03:09 302 12.8
2019-Oct-17 03:04 302 13.3
2019-Oct-17 02:49 302 13.3
2019-Oct-17 02:44 302 13.3
2019-Oct-17 02:39 303 12.8
2019-Oct-17 02:34 302 12.8
2019-Oct-17 02:19 215 12.8
2019-Oct-17 02:14 215 12.8
2019-Oct-17 02:09 215 12.8
2019-Oct-17 02:04 215 12.8
2019-Oct-17 01:49 215 13.3
2019-Oct-17 01:44 215 13.9
2019-Oct-17 01:39 215 13.9
2019-Oct-17 01:34 215 14.4
2019-Oct-17 01:19 216 13.9
2019-Oct-17 01:14 216 13.9
2019-Oct-17 01:09 216 14.4
2019-Oct-17 01:04 216 14.4
2019-Oct-17 00:49 217 15.0
2019-Oct-17 00:44 211 15.0
2019-Oct-17 00:39 140 15.0
2019-Oct-17 00:34 140 15.6
2019-Oct-17 00:19 209 16.1
2019-Oct-17 00:14 307 16.1
2019-Oct-17 00:09 307 16.7
2019-Oct-17 00:04 307 16.7
2019-Oct-16 23:49 307 17.2
2019-Oct-16 23:44 307 17.2
2019-Oct-16 23:39 307 17.2
2019-Oct-16 23:34 307 17.2
2019-Oct-16 23:19 277 17.8
2019-Oct-16 23:14 263 17.8
2019-Oct-16 23:09 272 17.8
2019-Oct-16 23:04 266 17.8
2019-Oct-16 22:49 272 0 gusting 2 17.8
2019-Oct-16 22:44 277 0 gusting 6 17.8
2019-Oct-16 22:39 284 17.8
2019-Oct-16 22:34 279 17.8
2019-Oct-16 22:19 270 0 gusting 4 17.8
2019-Oct-16 22:14 267 0 gusting 5 17.8
2019-Oct-16 22:09 275 0 gusting 2 17.8
2019-Oct-16 22:04 278 0 gusting 10 17.8
2019-Oct-16 21:49 267 1 gusting 8 18.3
2019-Oct-16 21:44 273 0 gusting 4 18.3
2019-Oct-16 21:39 271 0 gusting 8 18.3
2019-Oct-16 21:34 273 0 gusting 10 18.3
2019-Oct-16 21:19 274 1 gusting 10 18.3
2019-Oct-16 21:14 275 1 gusting 10 18.3
2019-Oct-16 21:09 277 2 gusting 10 18.3
2019-Oct-16 21:04 275 3 gusting 11 18.3
2019-Oct-16 20:49 260 0 gusting 4 18.3
2019-Oct-16 20:44 262 1 gusting 8 18.3
2019-Oct-16 20:39 265 1 gusting 7 18.3
2019-Oct-16 20:34 264 1 gusting 7 18.3
2019-Oct-16 20:19 266 1 gusting 4 18.9
2019-Oct-16 20:14 266 2 gusting 6 18.9
2019-Oct-16 20:09 269 1 gusting 7 18.9
2019-Oct-16 20:04 263 1 gusting 8 18.9
2019-Oct-16 19:49 261 0 gusting 6 18.9
2019-Oct-16 19:44 265 1 gusting 5 18.9
2019-Oct-16 19:39 276 0 gusting 6 19.4
2019-Oct-16 19:34 268 2 gusting 8 19.4
2019-Oct-16 19:19 256 2 gusting 5 20.0
2019-Oct-16 19:14 258 2 gusting 4 20.0
2019-Oct-16 19:09 273 0 gusting 6 20.0
2019-Oct-16 19:04 263 2 gusting 6 20.0
2019-Oct-16 18:49 253 2 gusting 5 20.6
2019-Oct-16 18:44 261 0 gusting 4 21.1
2019-Oct-16 18:39 264 2 gusting 6 21.1
2019-Oct-16 18:34 246 1 gusting 10 21.1
2019-Oct-16 18:19 227 21.7
2019-Oct-16 18:14 217 21.7
2019-Oct-16 18:09 234 21.7
2019-Oct-16 18:04 209 21.7
2019-Oct-16 17:49 212 0 gusting 2 22.2
2019-Oct-16 17:44 199 22.2
2019-Oct-16 17:39 206 22.2
2019-Oct-16 17:34 194 22.2
2019-Oct-16 17:19 190 22.8
2019-Oct-16 17:14 180 23.3
2019-Oct-16 17:09 194 23.3
2019-Oct-16 17:04 189 23.3
2019-Oct-16 16:49 172 23.9
2019-Oct-16 16:44 153 23.9
2019-Oct-16 16:39 161 0 gusting 2 23.9
2019-Oct-16 16:34 166 23.9
2019-Oct-16 16:19 144 23.9
2019-Oct-16 16:14 117 23.9
2019-Oct-16 16:09 117 23.9
2019-Oct-16 16:04 123 23.9
2019-Oct-16 15:49 161 24.4
2019-Oct-16 15:44 159 24.4
2019-Oct-16 15:39 082 24.4
2019-Oct-16 15:34 032 24.4
2019-Oct-16 15:19 350 24.4
2019-Oct-16 15:14 354 23.9
2019-Oct-16 15:09 094 23.3
2019-Oct-16 15:04 083 23.3
2019-Oct-16 14:49 102 22.8
2019-Oct-16 14:44 072 22.8
2019-Oct-16 14:39 087 22.8
2019-Oct-16 14:34 066 22.8
2019-Oct-16 14:19 030 22.8
2019-Oct-16 14:14 059 22.8
2019-Oct-16 14:09 051 22.8
2019-Oct-16 14:04 066 22.8
2019-Oct-16 13:49 053 4 gusting 6 22.8
2019-Oct-16 13:44 179 22.8
2019-Oct-16 13:39 093 0 gusting 2 22.8
2019-Oct-16 13:34 082 22.8
2019-Oct-16 13:19 093 22.2
2019-Oct-16 13:14 075 0 gusting 2 22.2
2019-Oct-16 13:09 051 22.2
2019-Oct-16 13:04 008 22.2
2019-Oct-16 12:49 068 1 gusting 6 22.2
2019-Oct-16 12:44 105 21.7
2019-Oct-16 12:39 092 21.7
2019-Oct-16 12:34 109 21.7
2019-Oct-16 12:19 110 21.7
2019-Oct-16 12:14 112 21.7
2019-Oct-16 12:09 112 21.7
2019-Oct-16 12:04 120 0 gusting 2 21.7
2019-Oct-16 11:49 117 0 gusting 2 20.6
2019-Oct-16 11:44 037 20.6
2019-Oct-16 11:39 112 20.6
2019-Oct-16 11:34 068 20.0
2019-Oct-16 11:19 004 0 gusting 2 20.0
2019-Oct-16 11:14 031 20.0
2019-Oct-16 11:09 056 20.0
2019-Oct-16 11:04 039 19.4
2019-Oct-16 10:49 040 18.3
2019-Oct-16 10:44 021 1 gusting 5 18.3
2019-Oct-16 10:39 358 18.3
2019-Oct-16 10:34 026 0 gusting 6 17.8
2019-Oct-16 10:19 010 0 gusting 5 17.8
2019-Oct-16 10:14 002 1 gusting 5 17.8
2019-Oct-16 10:09 042 17.2
2019-Oct-16 10:04 027 0 gusting 4 17.2
2019-Oct-16 09:49 016 16.7
2019-Oct-16 09:44 068 0 gusting 2 16.7
2019-Oct-16 09:39 059 16.1
2019-Oct-16 09:34 042 0 gusting 6 16.1
2019-Oct-16 09:19 352 15.6
2019-Oct-16 09:14 072 15.6
2019-Oct-16 09:09 017 0 gusting 4 15.0
2019-Oct-16 09:04 008 0 gusting 6 15.0
2019-Oct-16 08:49 004 14.4
2019-Oct-16 08:44 002 0 gusting 4 14.4
2019-Oct-16 08:39 008 0 gusting 2 13.9
2019-Oct-16 08:34 028 0 gusting 5 13.9
2019-Oct-16 08:19 022 13.3
2019-Oct-16 08:14 034 12.8
2019-Oct-16 08:09 007 0 gusting 6 12.8
2019-Oct-16 08:04 013 1 gusting 5 12.8
2019-Oct-16 07:49 023 0 gusting 5 12.8
2019-Oct-16 07:44 013 0 gusting 2 12.8
2019-Oct-16 07:39 011 0 gusting 4 12.8
2019-Oct-16 07:34 002 12.8
2019-Oct-16 07:19 005 12.2
2019-Oct-16 07:14 355 12.2
2019-Oct-16 07:09 001 12.2
2019-Oct-16 07:04 002 11.7
2019-Oct-16 06:49 358 11.7
2019-Oct-16 06:44 001 11.7
2019-Oct-16 06:39 001 11.7
2019-Oct-16 06:34 11.7
2019-Oct-16 06:19 357 11.7
2019-Oct-16 06:14 004 0 gusting 4 11.7
2019-Oct-16 06:09 007 11.7
2019-Oct-16 06:04 008 11.7